Other Surface Observations
Issued by NWS

Home | Current Version | Previous Version | Text Only | Print | Product List | Glossary On
Versions: 1 2 3 4 5 6 7 8 9 10 11 12 13 14 15 16 17 18 19 20 21 22 23 24 25 26 27 28 29 30 31 32 33 34 35 36 37 38 39 40 41 42 43 44 45 46 47 48 49 50
000
SXUS52 KTAE 301919
OSOTAE
OSOTAE
North Florida/South Alabama/Southwest Georgia Weather Roundup
National Weather Service Tallahassee Florida
300 PM EDT SUN AUG 30 2015

Note: "fair" indicates few or no clouds below 12,000 feet with no
significant weather and/or obstructions to visibility.

!FLZ017-115-028-034-025-302000
...North Florida...

CITY           SKY/WX    TMP DP  RH WIND       PRES   REMARKS
TALLAHASSEE    PTSUNNY   92  69  47 NW7       30.01F HX  97
APALACHICOLA   PTSUNNY   86  76  71 S6        30.01F HX  96
PERRY          MOSUNNY   88  59  36 CALM      30.00F
CROSS CITY       N/A     84  77  79 SW10      29.99F HX  94
JACKSONVILLE   PTSUNNY   80  74  81 E6        30.02F
$$

!FLZ112-006-005-002-011-302000
...Florida Panhandle...

CITY           SKY/WX    TMP DP  RH WIND       PRES   REMARKS
MARIANNA       MOSUNNY   89  69  51 VRB6      30.02F HX  93
BONIFAY        FAIR      89  67  47 N7        30.03F HX  92
PANAMA CITY NW FAIR      90  68  48 NW9       30.01F HX  94
TYNDALL AFB    SUNNY     89  72  56 W8        30.01F HX  96
TYND DRONE APT FAIR      90  70  52 N5        30.01F HX  96
DE FUNIAK SPR  FAIR      87  69  54 N3        30.05F HX  91
EGLIN AFB      MOSUNNY   89  71  55 S10       30.02F HX  94
DESTIN         SUNNY     88  71  57 VRB6      30.02F HX  94
HURLBURT       SUNNY     86  70  58 S12       30.02F HX  90
CRESTVIEW      MOSUNNY   89  68  49 CALM      30.05F HX  93
PENSACOLA      CLOUDY    84  70  62 S7        30.03F
$$

!ALZ063-066-302000
...South Alabama...

CITY           SKY/WX    TMP DP  RH WIND       PRES   REMARKS
DOTHAN         MOSUNNY   87  69  54 MISG      30.08F HX  91
OZARK CAIRNS     N/A     87  68  53 NW7       30.04F HX  90
FT RUCKER HELI MOSUNNY   87  67  51 W7        30.03F HX  90
RUCKER HELI 3  FAIR      84  68  57 NW8       30.06F
RUCKER HELI 2  NOT AVBL
FLORALA APT    MOSUNNY   87  70  56 VRB7      30.06F HX  92
ANDALUSIA      MOSUNNY   90  70  51 VRB3      30.05F HX  95
TROY           SUNNY     84  67  56 CALM      30.07F
EUFALA         FAIR      86  69  56 VRB3      30.04F HX  90
MOBILE         MOSUNNY   89  68  49 S7        30.04F HX  93
$$

!GAZ120>161-302000
...Southwest and South Central Georgia...

CITY           SKY/WX    TMP DP  RH WIND       PRES   REMARKS
THOMASVILLE    FAIR      86  72  62 CALM      30.04F HX  92
BAINBRIDGE     SUNNY     90  70  51 NW6       30.03F HX  95
MOODY AFB      PTSUNNY   88  70  55 NW9       30.01F HX  93
VALDOSTA       PTSUNNY   89  71  55 VRB3      30.01F HX  95
MOULTRIE       MOSUNNY   88  70  55 SW5       30.04F HX  92
BLAKELY        PTSUNNY   88  72  58 N5        30.04F HX  94
ALBANY         MOSUNNY   88  70  55 VRB6      30.05F HX  93
TIFTON         CLOUDY    85  70  59 E3        30.03F
FITZGERALD     MOCLDY    87  70  56 N3        30.05F HX  92
CORDELE        MOCLDY    86  74  68 CALM      30.05F HX  94
AMERICUS       FAIR      84  70  61 S3        30.06F
HOMERVILLE     PTSUNNY   90  73  58 CALM      30.02F HX  98
$$

!GMZ750-755-770-775-302000
...Coastal and Buoy Obs...

STATION/POSITION TIME  TEMP    WIND        PRES    VSBY  WAVE
                       AIR SEA DIR/SP/G                  HT/PER
                 (UTC) (F)     (DEG/KT/KT) (MB)    (MI)  (FT/S)
KEATON BEACH     1900   84     280/  5/  7 1016.1F
CEDAR KEY        1900   84     260/  6/  8 1016.0F
C TOWER          1900   83      30/  7/  8 1016.2F
APALACHICOLA BUO 1850   84 88  360/  4/  6 1015.9F         2/ 5
PANAMA CITY BUOY 1850   83 86   20/ 12/ 14 1016.7F         1/ 5
MOBILE BUOY      1850   83 88   50/  4/  6 1017.7F         1/ 5
ORANGE BCH AL BU 1850   83 87  130/  4/  6 1016.7F         1/ 5
$$



USA.gov is the U.S. government's official web portal to all federal, state and local government web resources and services.